Year,Month,Day,Hour,Minute,Value (Times are PST for temperature in C)
2018,08,08,00,00,21.40
2018,08,08,00,01,21.40
2018,08,08,00,02,21.40
2018,08,08,00,03,21.40
2018,08,08,00,04,21.30
2018,08,08,00,05,21.30
2018,08,08,00,06,21.30
2018,08,08,00,07,21.30
2018,08,08,00,08,21.30
2018,08,08,00,09,21.30
2018,08,08,00,10,21.30
2018,08,08,00,11,21.20
2018,08,08,00,12,21.20
2018,08,08,00,13,21.20
2018,08,08,00,14,21.20
2018,08,08,00,15,21.20
2018,08,08,00,16,21.20
2018,08,08,00,17,21.20
2018,08,08,00,18,21.20
2018,08,08,00,19,21.20
2018,08,08,00,20,21.10
2018,08,08,00,21,21.10
2018,08,08,00,22,21.10
2018,08,08,00,23,21.10
2018,08,08,00,24,21.10
2018,08,08,00,25,21.10
2018,08,08,00,26,21.10
2018,08,08,00,27,21.10
2018,08,08,00,28,21.10
2018,08,08,00,29,21.00
2018,08,08,00,30,21.00
2018,08,08,00,31,21.00
2018,08,08,00,32,21.00
2018,08,08,00,33,21.00
2018,08,08,00,34,20.90
2018,08,08,00,35,20.90
2018,08,08,00,36,20.90
2018,08,08,00,37,20.90
2018,08,08,00,38,20.90
2018,08,08,00,39,20.90
2018,08,08,00,40,20.90
2018,08,08,00,41,20.80
2018,08,08,00,42,20.80
2018,08,08,00,43,20.80
2018,08,08,00,44,20.80
2018,08,08,00,45,20.80
2018,08,08,00,46,20.70
2018,08,08,00,47,20.70
2018,08,08,00,48,20.70
2018,08,08,00,49,20.70
2018,08,08,00,50,20.70
2018,08,08,00,51,20.70
2018,08,08,00,52,20.70
2018,08,08,00,53,20.70
2018,08,08,00,54,20.60
2018,08,08,00,55,20.60
2018,08,08,00,56,20.60
2018,08,08,00,57,20.60
2018,08,08,00,58,20.60
2018,08,08,00,59,20.60
2018,08,08,01,00,20.50
2018,08,08,01,01,20.50
2018,08,08,01,02,20.50
2018,08,08,01,03,20.50
2018,08,08,01,04,20.50
2018,08,08,01,05,20.40
2018,08,08,01,06,20.40
2018,08,08,01,07,20.40
2018,08,08,01,08,20.40
2018,08,08,01,09,20.40
2018,08,08,01,10,20.40
2018,08,08,01,11,20.40
2018,08,08,01,12,20.40
2018,08,08,01,13,20.30
2018,08,08,01,14,20.30
2018,08,08,01,15,20.30
2018,08,08,01,16,20.30
2018,08,08,01,17,20.30
2018,08,08,01,18,20.30
2018,08,08,01,19,20.20
2018,08,08,01,20,20.20
2018,08,08,01,21,20.20
2018,08,08,01,22,20.20
2018,08,08,01,23,20.20
2018,08,08,01,24,20.10
2018,08,08,01,25,20.10
2018,08,08,01,26,20.10
2018,08,08,01,27,20.10
2018,08,08,01,28,20.10
2018,08,08,01,29,20.00
2018,08,08,01,30,20.00
2018,08,08,01,31,20.00
2018,08,08,01,32,20.00
2018,08,08,01,33,19.90
2018,08,08,01,34,19.90
2018,08,08,01,35,19.90
2018,08,08,01,36,19.90
2018,08,08,01,37,19.90
2018,08,08,01,38,19.90
2018,08,08,01,39,19.80
2018,08,08,01,40,19.80
2018,08,08,01,41,19.80
2018,08,08,01,42,19.80
2018,08,08,01,43,19.80
2018,08,08,01,44,19.80
2018,08,08,01,45,19.80
2018,08,08,01,46,19.80
2018,08,08,01,47,19.80
2018,08,08,01,48,19.80
2018,08,08,01,49,19.80
2018,08,08,01,50,19.80
2018,08,08,01,51,19.80
2018,08,08,01,52,19.70
2018,08,08,01,53,19.70
2018,08,08,01,54,19.70
2018,08,08,01,55,19.70
2018,08,08,01,56,19.70
2018,08,08,01,57,19.60
2018,08,08,01,58,19.60
2018,08,08,01,59,19.60
2018,08,08,02,00,19.60
2018,08,08,02,01,19.60
2018,08,08,02,02,19.60
2018,08,08,02,03,19.60
2018,08,08,02,04,19.50
2018,08,08,02,05,19.50
2018,08,08,02,06,19.50
2018,08,08,02,07,19.40
2018,08,08,02,08,19.40
2018,08,08,02,09,19.40
2018,08,08,02,10,19.40
2018,08,08,02,11,19.30
2018,08,08,02,12,19.30
2018,08,08,02,13,19.30
2018,08,08,02,14,19.30
2018,08,08,02,15,19.30
2018,08,08,02,16,19.20
2018,08,08,02,17,19.20
2018,08,08,02,18,19.20
2018,08,08,02,19,19.20
2018,08,08,02,20,19.20
2018,08,08,02,21,19.20
2018,08,08,02,22,19.20
2018,08,08,02,23,19.10
2018,08,08,02,24,19.10
2018,08,08,02,25,19.10
2018,08,08,02,26,19.10
2018,08,08,02,27,19.10
2018,08,08,02,28,19.10
2018,08,08,02,29,19.10
2018,08,08,02,30,19.10
2018,08,08,02,31,19.10
2018,08,08,02,32,19.10
2018,08,08,02,33,19.10
2018,08,08,02,34,19.10
2018,08,08,02,35,19.10
2018,08,08,02,36,19.10
2018,08,08,02,37,19.10
2018,08,08,02,38,19.10
2018,08,08,02,39,19.10
2018,08,08,02,40,19.10
2018,08,08,02,41,19.00
2018,08,08,02,42,19.00
2018,08,08,02,43,19.00
2018,08,08,02,44,19.00
2018,08,08,02,45,19.00
2018,08,08,02,46,18.90
2018,08,08,02,47,18.90
2018,08,08,02,48,18.90
2018,08,08,02,49,18.90
2018,08,08,02,50,18.90
2018,08,08,02,51,18.90
2018,08,08,02,52,18.90
2018,08,08,02,53,18.90
2018,08,08,02,54,18.90
2018,08,08,02,55,18.90
2018,08,08,02,56,18.90
2018,08,08,02,57,18.80
2018,08,08,02,58,18.80
2018,08,08,02,59,18.80
2018,08,08,03,00,18.80
2018,08,08,03,01,18.80
2018,08,08,03,02,18.80
2018,08,08,03,03,18.80
2018,08,08,03,04,18.80
2018,08,08,03,05,18.80
2018,08,08,03,06,18.80
2018,08,08,03,07,18.70
2018,08,08,03,08,18.70
2018,08,08,03,09,18.70
2018,08,08,03,10,18.70
2018,08,08,03,11,18.70
2018,08,08,03,12,18.70
2018,08,08,03,13,18.60
2018,08,08,03,14,18.60
2018,08,08,03,15,18.60
2018,08,08,03,16,18.60
2018,08,08,03,17,18.60
2018,08,08,03,18,18.60
2018,08,08,03,19,18.60
2018,08,08,03,20,18.60
2018,08,08,03,21,18.60
2018,08,08,03,22,18.50
2018,08,08,03,23,18.50
2018,08,08,03,24,18.50
2018,08,08,03,25,18.40
2018,08,08,03,26,18.40
2018,08,08,03,27,18.40
2018,08,08,03,28,18.40
2018,08,08,03,29,18.40
2018,08,08,03,30,18.40
2018,08,08,03,31,18.40
2018,08,08,03,32,18.40
2018,08,08,03,33,18.40
2018,08,08,03,34,18.40
2018,08,08,03,35,18.30
2018,08,08,03,36,18.30
2018,08,08,03,37,18.30
2018,08,08,03,38,18.30
2018,08,08,03,39,18.30
2018,08,08,03,40,18.30
2018,08,08,03,41,18.30
2018,08,08,03,42,18.30
2018,08,08,03,43,18.30
2018,08,08,03,44,18.30
2018,08,08,03,45,18.30
2018,08,08,03,46,18.30
2018,08,08,03,47,18.30
2018,08,08,03,48,18.30
2018,08,08,03,49,18.30
2018,08,08,03,50,18.30
2018,08,08,03,51,18.10
2018,08,08,03,52,18.10
2018,08,08,03,53,18.10
2018,08,08,03,54,18.10
2018,08,08,03,55,18.00
2018,08,08,03,56,18.00
2018,08,08,03,57,18.00
2018,08,08,03,58,17.90
2018,08,08,03,59,17.90
2018,08,08,04,00,17.90
2018,08,08,04,01,17.90
2018,08,08,04,02,17.90
2018,08,08,04,03,17.90
2018,08,08,04,04,17.90
2018,08,08,04,05,17.90
2018,08,08,04,06,17.80
2018,08,08,04,07,17.80
2018,08,08,04,08,17.80
2018,08,08,04,09,17.80
2018,08,08,04,10,17.80
2018,08,08,04,11,17.80
2018,08,08,04,12,17.80
2018,08,08,04,13,17.80
2018,08,08,04,14,17.80
2018,08,08,04,15,17.80
2018,08,08,04,16,17.80
2018,08,08,04,17,17.80
2018,08,08,04,18,17.80
2018,08,08,04,19,17.80
2018,08,08,04,20,17.80
2018,08,08,04,21,17.80
2018,08,08,04,22,17.80
2018,08,08,04,23,17.80
2018,08,08,04,24,17.70
2018,08,08,04,25,17.70
2018,08,08,04,26,17.70
2018,08,08,04,27,17.70
2018,08,08,04,28,17.70
2018,08,08,04,29,17.70
2018,08,08,04,30,17.70
2018,08,08,04,31,17.60
2018,08,08,04,32,17.60
2018,08,08,04,33,17.60
2018,08,08,04,34,17.60
2018,08,08,04,35,17.60
2018,08,08,04,36,17.60
2018,08,08,04,37,17.60
2018,08,08,04,38,17.50
2018,08,08,04,39,17.50
2018,08,08,04,40,17.50
2018,08,08,04,41,17.50
2018,08,08,04,42,17.40
2018,08,08,04,43,17.40
2018,08,08,04,44,17.40
2018,08,08,04,45,17.40
2018,08,08,04,46,17.40
2018,08,08,04,47,17.40
2018,08,08,04,48,17.40
2018,08,08,04,49,17.40
2018,08,08,04,50,17.40
2018,08,08,04,51,17.40
2018,08,08,04,52,17.40
2018,08,08,04,53,17.40
2018,08,08,04,54,17.30
2018,08,08,04,55,17.30
2018,08,08,04,56,17.30
2018,08,08,04,57,17.30
2018,08,08,04,58,17.30
2018,08,08,04,59,17.30
2018,08,08,05,00,17.30
2018,08,08,05,01,17.30
2018,08,08,05,02,17.30
2018,08,08,05,03,17.30
2018,08,08,05,04,17.30
2018,08,08,05,05,17.30
2018,08,08,05,06,17.30
2018,08,08,05,07,17.30
2018,08,08,05,08,17.30
2018,08,08,05,09,17.30
2018,08,08,05,10,17.30
2018,08,08,05,11,17.30
2018,08,08,05,12,17.20
2018,08,08,05,13,17.20
2018,08,08,05,14,17.20
2018,08,08,05,15,17.20
2018,08,08,05,16,17.20
2018,08,08,05,17,17.20
2018,08,08,05,18,17.20
2018,08,08,05,19,17.10
2018,08,08,05,20,17.10
2018,08,08,05,21,17.10
2018,08,08,05,22,17.10
2018,08,08,05,23,17.10
2018,08,08,05,24,17.10
2018,08,08,05,25,17.10
2018,08,08,05,26,17.10
2018,08,08,05,27,17.00
2018,08,08,05,28,17.00
2018,08,08,05,29,17.00
2018,08,08,05,30,16.90
2018,08,08,05,31,16.90
2018,08,08,05,32,16.90
2018,08,08,05,33,16.90
2018,08,08,05,34,16.90
2018,08,08,05,35,16.90
2018,08,08,05,36,16.90
2018,08,08,05,37,16.90
2018,08,08,05,38,16.90
2018,08,08,05,39,16.90
2018,08,08,05,40,16.90
2018,08,08,05,41,16.90
2018,08,08,05,42,16.80
2018,08,08,05,43,16.80
2018,08,08,05,44,16.80
2018,08,08,05,45,16.80
2018,08,08,05,46,16.80
2018,08,08,05,47,16.80
2018,08,08,05,48,16.80
2018,08,08,05,49,16.80
2018,08,08,05,50,16.80
2018,08,08,05,51,16.80
2018,08,08,05,52,16.80
2018,08,08,05,53,16.80
2018,08,08,05,54,16.80
2018,08,08,05,55,16.80
2018,08,08,05,56,16.80
2018,08,08,05,57,16.80
2018,08,08,05,58,16.80
2018,08,08,05,59,16.80
2018,08,08,06,00,16.80
2018,08,08,06,01,16.80
2018,08,08,06,02,16.80
2018,08,08,06,03,16.80
2018,08,08,06,04,16.80
2018,08,08,06,05,16.80
2018,08,08,06,06,16.80
2018,08,08,06,07,16.80
2018,08,08,06,08,16.90
2018,08,08,06,09,16.90
2018,08,08,06,10,16.90
2018,08,08,06,11,16.90
2018,08,08,06,12,16.90
2018,08,08,06,13,16.90
2018,08,08,06,14,16.90
2018,08,08,06,15,17.00
2018,08,08,06,16,17.00
2018,08,08,06,17,17.00
2018,08,08,06,18,17.00
2018,08,08,06,19,17.00
2018,08,08,06,20,17.00
2018,08,08,06,21,17.00
2018,08,08,06,22,17.00
2018,08,08,06,23,17.00
2018,08,08,06,24,17.00
2018,08,08,06,25,17.00
2018,08,08,06,26,17.00
2018,08,08,06,27,17.00
2018,08,08,06,28,16.90
2018,08,08,06,29,16.90
2018,08,08,06,30,16.90
2018,08,08,06,31,16.90
2018,08,08,06,32,16.90
2018,08,08,06,33,16.90
2018,08,08,06,34,16.90
2018,08,08,06,35,16.90
2018,08,08,06,36,16.90
2018,08,08,06,37,16.90
2018,08,08,06,38,16.90
2018,08,08,06,39,16.90
2018,08,08,06,40,17.00
2018,08,08,06,41,17.00
2018,08,08,06,42,17.00
2018,08,08,06,43,17.00
2018,08,08,06,44,16.90
2018,08,08,06,45,16.90
2018,08,08,06,46,16.90
2018,08,08,06,47,16.90
2018,08,08,06,48,17.00
2018,08,08,06,49,17.00
2018,08,08,06,50,17.00
2018,08,08,06,51,17.00
2018,08,08,06,52,17.00
2018,08,08,06,53,17.00
2018,08,08,06,54,17.10
2018,08,08,06,55,17.10
2018,08,08,06,56,17.10
2018,08,08,06,57,17.10
2018,08,08,06,58,17.10
2018,08,08,06,59,17.10
2018,08,08,07,00,17.10
2018,08,08,07,01,17.10
2018,08,08,07,02,17.20
2018,08,08,07,03,17.20
2018,08,08,07,04,17.20
2018,08,08,07,05,17.20
2018,08,08,07,06,17.20
2018,08,08,07,07,17.30
2018,08,08,07,08,17.30
2018,08,08,07,09,17.30
2018,08,08,07,10,17.30
2018,08,08,07,11,17.30
2018,08,08,07,12,17.30
2018,08,08,07,13,17.40
2018,08,08,07,14,17.40
2018,08,08,07,15,17.40
2018,08,08,07,16,17.40
2018,08,08,07,17,17.40
2018,08,08,07,18,17.40
2018,08,08,07,19,17.40
2018,08,08,07,20,17.40
2018,08,08,07,21,17.40
2018,08,08,07,22,17.40
2018,08,08,07,23,17.40
2018,08,08,07,24,17.40
2018,08,08,07,25,17.50
2018,08,08,07,26,17.50
2018,08,08,07,27,17.60
2018,08,08,07,28,17.60
2018,08,08,07,29,17.60
2018,08,08,07,30,17.60
2018,08,08,07,31,17.70
2018,08,08,07,32,17.70
2018,08,08,07,33,17.70
2018,08,08,07,34,17.70
2018,08,08,07,35,17.70
2018,08,08,07,36,17.70
2018,08,08,07,37,17.80
2018,08,08,07,38,17.80
2018,08,08,07,39,17.80
2018,08,08,07,40,17.80
2018,08,08,07,41,17.80
2018,08,08,07,42,17.80
2018,08,08,07,43,17.80
2018,08,08,07,44,17.90
2018,08,08,07,45,17.90
2018,08,08,07,46,18.00
2018,08,08,07,47,18.10
2018,08,08,07,48,18.10
2018,08,08,07,49,18.20
2018,08,08,07,50,18.30
2018,08,08,07,51,18.30
2018,08,08,07,52,18.40
2018,08,08,07,53,18.50
2018,08,08,07,54,18.50
2018,08,08,07,55,18.60
2018,08,08,07,56,18.60
2018,08,08,07,57,18.70
2018,08,08,07,58,18.70
2018,08,08,07,59,18.80
2018,08,08,08,00,18.80
2018,08,08,08,01,18.80
2018,08,08,08,02,18.90
2018,08,08,08,03,18.90
2018,08,08,08,04,18.90
2018,08,08,08,05,18.90
2018,08,08,08,06,19.00
2018,08,08,08,07,19.00
2018,08,08,08,08,19.10
2018,08,08,08,09,19.10
2018,08,08,08,10,19.20
2018,08,08,08,11,19.20
2018,08,08,08,12,19.30
2018,08,08,08,13,19.30
2018,08,08,08,14,19.40
2018,08,08,08,15,19.40
2018,08,08,08,16,19.50
2018,08,08,08,17,19.50
2018,08,08,08,18,19.50
2018,08,08,08,19,19.60
2018,08,08,08,20,19.60
2018,08,08,08,21,19.60
2018,08,08,08,22,19.70
2018,08,08,08,23,19.70
2018,08,08,08,24,19.80
2018,08,08,08,25,19.80
2018,08,08,08,26,19.90
2018,08,08,08,27,19.90
2018,08,08,08,28,20.00
2018,08,08,08,29,20.10
2018,08,08,08,30,20.10
2018,08,08,08,31,20.20
2018,08,08,08,32,20.20
2018,08,08,08,33,20.20
2018,08,08,08,34,20.20
2018,08,08,08,35,20.30
2018,08,08,08,36,20.30
2018,08,08,08,37,20.30
2018,08,08,08,38,20.30
2018,08,08,08,39,20.30
2018,08,08,08,40,20.30
2018,08,08,08,41,20.40
2018,08,08,08,42,20.40
2018,08,08,08,43,20.40
2018,08,08,08,44,20.50
2018,08,08,08,45,20.50
2018,08,08,08,46,20.60
2018,08,08,08,47,20.60
2018,08,08,08,48,20.70
2018,08,08,08,49,20.80
2018,08,08,08,50,20.80
2018,08,08,08,51,20.90
2018,08,08,08,52,20.90
2018,08,08,08,53,21.00
2018,08,08,08,54,21.10
2018,08,08,08,55,21.10
2018,08,08,08,56,21.20
2018,08,08,08,57,21.30
2018,08,08,08,58,21.30
2018,08,08,08,59,21.40
2018,08,08,09,00,21.40
2018,08,08,09,01,21.50
2018,08,08,09,02,21.60
2018,08,08,09,03,21.60
2018,08,08,09,04,21.70
2018,08,08,09,05,21.80
2018,08,08,09,06,21.90
2018,08,08,09,07,22.00
2018,08,08,09,08,22.20
2018,08,08,09,09,22.20
2018,08,08,09,10,22.30
2018,08,08,09,11,22.40
2018,08,08,09,12,22.50
2018,08,08,09,13,22.60
2018,08,08,09,14,22.60
2018,08,08,09,15,22.70
2018,08,08,09,16,22.70
2018,08,08,09,17,22.80
2018,08,08,09,18,22.80
2018,08,08,09,19,22.90
2018,08,08,09,20,22.90
2018,08,08,09,21,22.90
2018,08,08,09,22,22.90
2018,08,08,09,23,23.00
2018,08,08,09,24,23.00
2018,08,08,09,25,23.00
2018,08,08,09,26,23.10
2018,08,08,09,27,23.10
2018,08,08,09,28,23.20
2018,08,08,09,29,23.30
2018,08,08,09,30,23.30
2018,08,08,09,31,23.40
2018,08,08,09,32,23.40
2018,08,08,09,33,23.40
2018,08,08,09,34,23.50
2018,08,08,09,35,23.40
2018,08,08,09,36,23.40
2018,08,08,09,37,23.50
2018,08,08,09,38,23.50
2018,08,08,09,39,23.50
2018,08,08,09,40,23.50
2018,08,08,09,41,23.60
2018,08,08,09,42,23.60
2018,08,08,09,43,23.70
2018,08,08,09,44,23.70
2018,08,08,09,45,23.80
2018,08,08,09,46,23.80
2018,08,08,09,47,23.80
2018,08,08,09,48,23.80
2018,08,08,09,49,23.90
2018,08,08,09,50,24.00
2018,08,08,09,51,24.00
2018,08,08,09,52,24.10
2018,08,08,09,53,24.10
2018,08,08,09,54,24.20
2018,08,08,09,55,24.30
2018,08,08,09,56,24.40
2018,08,08,09,57,24.50
2018,08,08,09,58,24.60
2018,08,08,09,59,24.60
2018,08,08,10,00,24.70
2018,08,08,10,01,24.70
2018,08,08,10,02,24.70
2018,08,08,10,03,24.70
2018,08,08,10,04,24.80
2018,08,08,10,05,24.80
2018,08,08,10,06,24.90
2018,08,08,10,07,24.90
2018,08,08,10,08,25.00
2018,08,08,10,09,25.00
2018,08,08,10,10,25.00
2018,08,08,10,11,25.10
2018,08,08,10,12,25.10
2018,08,08,10,13,25.10
2018,08,08,10,14,25.10
2018,08,08,10,15,25.20
2018,08,08,10,16,25.20
2018,08,08,10,17,25.30
2018,08,08,10,18,25.30
2018,08,08,10,19,25.40
2018,08,08,10,20,25.50
2018,08,08,10,21,25.60
2018,08,08,10,22,25.70
2018,08,08,10,23,25.70
2018,08,08,10,24,25.70
2018,08,08,10,25,25.70
2018,08,08,10,26,25.80
2018,08,08,10,27,25.90
2018,08,08,10,28,25.90
2018,08,08,10,29,26.00
2018,08,08,10,30,26.10
2018,08,08,10,31,26.10
2018,08,08,10,32,26.20
2018,08,08,10,33,26.20
2018,08,08,10,34,26.30
2018,08,08,10,35,26.30
2018,08,08,10,36,26.30
2018,08,08,10,37,26.40
2018,08,08,10,38,26.50
2018,08,08,10,39,26.50
2018,08,08,10,40,26.60
2018,08,08,10,41,26.70
2018,08,08,10,42,26.80
2018,08,08,10,43,26.90
2018,08,08,10,44,27.00
2018,08,08,10,45,27.10
2018,08,08,10,46,27.20
2018,08,08,10,47,27.30
2018,08,08,10,48,27.30
2018,08,08,10,49,27.40
2018,08,08,10,50,27.50
2018,08,08,10,51,27.50
2018,08,08,10,52,27.60
2018,08,08,10,53,27.60
2018,08,08,10,54,27.60
2018,08,08,10,55,27.60
2018,08,08,10,56,27.50
2018,08,08,10,57,27.50
2018,08,08,10,58,27.50
2018,08,08,10,59,27.50
2018,08,08,11,00,27.60
2018,08,08,11,01,27.60
2018,08,08,11,02,27.60
2018,08,08,11,03,27.60
2018,08,08,11,04,27.70
2018,08,08,11,05,27.80
2018,08,08,11,06,27.80
2018,08,08,11,07,27.80
2018,08,08,11,08,27.70
2018,08,08,11,09,27.70
2018,08,08,11,10,27.70
2018,08,08,11,11,27.70
2018,08,08,11,12,27.70
2018,08,08,11,13,27.70
2018,08,08,11,14,27.80
2018,08,08,11,15,27.80
2018,08,08,11,16,27.90
2018,08,08,11,17,28.00
2018,08,08,11,18,28.10
2018,08,08,11,19,28.20
2018,08,08,11,20,28.30
2018,08,08,11,21,28.30
2018,08,08,11,22,28.40
2018,08,08,11,23,28.50
2018,08,08,11,24,28.50
2018,08,08,11,25,28.60
2018,08,08,11,26,28.50
2018,08,08,11,27,28.60
2018,08,08,11,28,28.60
2018,08,08,11,29,28.60
2018,08,08,11,30,28.60
2018,08,08,11,31,28.60
2018,08,08,11,32,28.60
2018,08,08,11,33,28.80
2018,08,08,11,34,28.90
2018,08,08,11,35,29.00
2018,08,08,11,36,29.10
2018,08,08,11,37,29.20
2018,08,08,11,38,29.30
2018,08,08,11,39,29.40
2018,08,08,11,40,29.40
2018,08,08,11,41,29.40
2018,08,08,11,42,29.40
2018,08,08,11,43,29.40
2018,08,08,11,44,29.40
2018,08,08,11,45,29.40
2018,08,08,11,46,29.50
2018,08,08,11,47,29.50
2018,08,08,11,48,29.50
2018,08,08,11,49,29.50
2018,08,08,11,50,29.50
2018,08,08,11,51,29.60
2018,08,08,11,52,29.60
2018,08,08,11,53,29.70
2018,08,08,11,54,29.70
2018,08,08,11,55,29.80
2018,08,08,11,56,29.90
2018,08,08,11,57,30.00
2018,08,08,11,58,30.10
2018,08,08,11,59,30.20
2018,08,08,12,00,30.30
2018,08,08,12,01,30.30
2018,08,08,12,02,30.30
2018,08,08,12,03,30.30
2018,08,08,12,04,30.30
2018,08,08,12,05,30.40
2018,08,08,12,06,30.50
2018,08,08,12,07,30.50
2018,08,08,12,08,30.70
2018,08,08,12,09,30.70
2018,08,08,12,10,30.80
2018,08,08,12,11,30.80
2018,08,08,12,12,30.80
2018,08,08,12,13,30.90
2018,08,08,12,14,30.90
2018,08,08,12,15,30.90
2018,08,08,12,16,30.90
2018,08,08,12,17,31.00
2018,08,08,12,18,31.00
2018,08,08,12,19,31.10
2018,08,08,12,20,31.20
2018,08,08,12,21,31.30
2018,08,08,12,22,31.30
2018,08,08,12,23,31.30
2018,08,08,12,24,31.30
2018,08,08,12,25,31.40
2018,08,08,12,26,31.40
2018,08,08,12,27,31.60
2018,08,08,12,28,31.70
2018,08,08,12,29,31.70
2018,08,08,12,30,31.70
2018,08,08,12,31,31.90
2018,08,08,12,32,31.90
2018,08,08,12,33,31.90
2018,08,08,12,34,31.80
2018,08,08,12,35,31.80
2018,08,08,12,36,31.80
2018,08,08,12,37,31.70
2018,08,08,12,38,31.60
2018,08,08,12,39,31.50
2018,08,08,12,40,31.50
2018,08,08,12,41,31.40
2018,08,08,12,42,31.40
2018,08,08,12,43,31.50
2018,08,08,12,44,31.50
2018,08,08,12,45,31.60
2018,08,08,12,46,31.70
2018,08,08,12,47,31.70
2018,08,08,12,48,31.80
2018,08,08,12,49,31.80
2018,08,08,12,50,31.90
2018,08,08,12,51,32.00
2018,08,08,12,52,32.00
2018,08,08,12,53,32.10
2018,08,08,12,54,32.20
2018,08,08,12,55,32.20
2018,08,08,12,56,32.20
2018,08,08,12,57,32.20
2018,08,08,12,58,32.20
2018,08,08,12,59,32.30
2018,08,08,13,00,32.30
2018,08,08,13,01,32.30
2018,08,08,13,02,32.40
2018,08,08,13,03,32.40
2018,08,08,13,04,32.50
2018,08,08,13,05,32.50
2018,08,08,13,06,32.50
2018,08,08,13,07,32.40
2018,08,08,13,08,32.40
2018,08,08,13,09,32.40
2018,08,08,13,10,32.40
2018,08,08,13,11,32.40
2018,08,08,13,12,32.50
2018,08,08,13,13,32.60
2018,08,08,13,14,32.60
2018,08,08,13,15,32.60
2018,08,08,13,16,32.60
2018,08,08,13,17,32.60
2018,08,08,13,18,32.60
2018,08,08,13,19,32.60
2018,08,08,13,20,32.70
2018,08,08,13,21,32.70
2018,08,08,13,22,32.70
2018,08,08,13,23,32.70
2018,08,08,13,24,32.70
2018,08,08,13,25,32.70
2018,08,08,13,26,32.70
2018,08,08,13,27,32.70
2018,08,08,13,28,32.80
2018,08,08,13,29,32.80
2018,08,08,13,30,32.90
2018,08,08,13,31,32.90
2018,08,08,13,32,32.90
2018,08,08,13,33,33.00
2018,08,08,13,34,33.00
2018,08,08,13,35,33.00
2018,08,08,13,36,32.90
2018,08,08,13,37,32.80
2018,08,08,13,38,32.80
2018,08,08,13,39,32.70
2018,08,08,13,40,32.70
2018,08,08,13,41,32.70
2018,08,08,13,42,32.70
2018,08,08,13,43,32.80
2018,08,08,13,44,32.80
2018,08,08,13,45,32.90
2018,08,08,13,46,33.00
2018,08,08,13,47,33.20
2018,08,08,13,48,33.30
2018,08,08,13,49,33.30
2018,08,08,13,50,33.30
2018,08,08,13,51,33.40
2018,08,08,13,52,33.30
2018,08,08,13,53,33.30
2018,08,08,13,54,33.30
2018,08,08,13,55,33.30
2018,08,08,13,56,33.40
2018,08,08,13,57,33.40
2018,08,08,13,58,33.50
2018,08,08,13,59,33.60
2018,08,08,14,00,33.60
2018,08,08,14,01,33.60
2018,08,08,14,02,33.80
2018,08,08,14,03,33.90
2018,08,08,14,04,34.00
2018,08,08,14,05,34.00
2018,08,08,14,06,34.10
2018,08,08,14,07,34.10
2018,08,08,14,08,34.00
2018,08,08,14,09,34.00
2018,08,08,14,10,34.10
2018,08,08,14,11,34.20
2018,08,08,14,12,34.20
2018,08,08,14,13,34.20
2018,08,08,14,14,34.30
2018,08,08,14,15,34.40
2018,08,08,14,16,34.40
2018,08,08,14,17,34.50
2018,08,08,14,18,34.60
2018,08,08,14,19,34.70
2018,08,08,14,20,34.70
2018,08,08,14,21,34.60
2018,08,08,14,22,34.60
2018,08,08,14,23,34.50
2018,08,08,14,24,34.40
2018,08,08,14,25,34.40
2018,08,08,14,26,34.40
2018,08,08,14,27,34.50
2018,08,08,14,28,34.60
2018,08,08,14,29,34.60
2018,08,08,14,30,34.60
2018,08,08,14,31,34.70
2018,08,08,14,32,34.70
2018,08,08,14,33,34.70
2018,08,08,14,34,34.70
2018,08,08,14,35,34.70
2018,08,08,14,36,34.80
2018,08,08,14,37,34.80
2018,08,08,14,38,34.90
2018,08,08,14,39,35.00
2018,08,08,14,40,35.00
2018,08,08,14,41,35.10
2018,08,08,14,42,35.10
2018,08,08,14,43,35.20
2018,08,08,14,44,35.20
2018,08,08,14,45,35.20
2018,08,08,14,46,35.20
2018,08,08,14,47,35.20
2018,08,08,14,48,35.20
2018,08,08,14,49,35.10
2018,08,08,14,50,35.10
2018,08,08,14,51,35.10
2018,08,08,14,52,35.10
2018,08,08,14,53,35.20
2018,08,08,14,54,35.20
2018,08,08,14,55,35.30
2018,08,08,14,56,35.40
2018,08,08,14,57,35.50
2018,08,08,14,58,35.50
2018,08,08,14,59,35.40
2018,08,08,15,00,35.40
2018,08,08,15,01,35.30
2018,08,08,15,02,35.30
2018,08,08,15,03,35.40
2018,08,08,15,04,35.50
2018,08,08,15,05,35.50
2018,08,08,15,06,35.30
2018,08,08,15,07,35.20
2018,08,08,15,08,35.10
2018,08,08,15,09,35.10
2018,08,08,15,10,35.10
2018,08,08,15,11,35.00
2018,08,08,15,12,34.90
2018,08,08,15,13,34.80
2018,08,08,15,14,34.80
2018,08,08,15,15,34.80
2018,08,08,15,16,34.80
2018,08,08,15,17,34.80
2018,08,08,15,18,34.80
2018,08,08,15,19,34.80
2018,08,08,15,20,34.80
2018,08,08,15,21,34.70
2018,08,08,15,22,34.70
2018,08,08,15,23,34.80
2018,08,08,15,24,34.80
2018,08,08,15,25,34.80
2018,08,08,15,26,34.80
2018,08,08,15,27,34.90
2018,08,08,15,28,35.00
2018,08,08,15,29,35.10
2018,08,08,15,30,35.10
2018,08,08,15,31,35.10
2018,08,08,15,32,35.20
2018,08,08,15,33,35.20
2018,08,08,15,34,35.30
2018,08,08,15,35,35.30
2018,08,08,15,36,35.30
2018,08,08,15,37,35.30
2018,08,08,15,38,35.30
2018,08,08,15,39,35.30
2018,08,08,15,40,35.30
2018,08,08,15,41,35.20
2018,08,08,15,42,35.10
2018,08,08,15,43,35.00
2018,08,08,15,44,34.90
2018,08,08,15,45,34.90
2018,08,08,15,46,34.80
2018,08,08,15,47,34.90
2018,08,08,15,48,35.00
2018,08,08,15,49,35.00
2018,08,08,15,50,35.10
2018,08,08,15,51,35.20
2018,08,08,15,52,35.10
2018,08,08,15,53,35.10
2018,08,08,15,54,35.10
2018,08,08,15,55,35.00
2018,08,08,15,56,35.10
2018,08,08,15,57,35.20
2018,08,08,15,58,35.20
2018,08,08,15,59,35.30
2018,08,08,16,00,35.30
2018,08,08,16,01,35.30
2018,08,08,16,02,35.30
2018,08,08,16,03,35.30
2018,08,08,16,04,35.40
2018,08,08,16,05,35.50
2018,08,08,16,06,35.50
2018,08,08,16,07,35.40
2018,08,08,16,08,35.30
2018,08,08,16,09,35.30
2018,08,08,16,10,35.30
2018,08,08,16,11,35.30
2018,08,08,16,12,35.40
2018,08,08,16,13,35.40
2018,08,08,16,14,35.30
2018,08,08,16,15,35.20
2018,08,08,16,16,35.20
2018,08,08,16,17,35.30
2018,08,08,16,18,35.40
2018,08,08,16,19,35.50
2018,08,08,16,20,35.50
2018,08,08,16,21,35.50
2018,08,08,16,22,35.50
2018,08,08,16,23,35.50
2018,08,08,16,24,35.60
2018,08,08,16,25,35.50
2018,08,08,16,26,35.40
2018,08,08,16,27,35.40
2018,08,08,16,28,35.30
2018,08,08,16,29,35.30
2018,08,08,16,30,35.30
2018,08,08,16,31,35.40
2018,08,08,16,32,35.50
2018,08,08,16,33,35.60
2018,08,08,16,34,35.60
2018,08,08,16,35,35.60
2018,08,08,16,36,35.70
2018,08,08,16,37,35.70
2018,08,08,16,38,35.70
2018,08,08,16,39,35.60
2018,08,08,16,40,35.50
2018,08,08,16,41,35.40
2018,08,08,16,42,35.40
2018,08,08,16,43,35.40
2018,08,08,16,44,35.50
2018,08,08,16,45,35.60
2018,08,08,16,46,35.70
2018,08,08,16,47,35.80
2018,08,08,16,48,35.90
2018,08,08,16,49,36.00
2018,08,08,16,50,36.10
2018,08,08,16,51,36.10
2018,08,08,16,52,36.10
2018,08,08,16,53,36.00
2018,08,08,16,54,36.00
2018,08,08,16,55,35.90
2018,08,08,16,56,35.90
2018,08,08,16,57,35.90
2018,08,08,16,58,35.90
2018,08,08,16,59,35.90
2018,08,08,17,00,35.80
2018,08,08,17,01,35.80
2018,08,08,17,02,35.70
2018,08,08,17,03,35.70
2018,08,08,17,04,35.70
2018,08,08,17,05,35.70
2018,08,08,17,06,35.70
2018,08,08,17,07,35.70
2018,08,08,17,08,35.60
2018,08,08,17,09,35.50
2018,08,08,17,10,35.40
2018,08,08,17,11,35.30
2018,08,08,17,12,35.30
2018,08,08,17,13,35.20
2018,08,08,17,14,35.20
2018,08,08,17,15,35.20
2018,08,08,17,16,35.20
2018,08,08,17,17,35.10
2018,08,08,17,18,35.10
2018,08,08,17,19,35.10